Location: Sevilla
(37.3933°N, 5.9839°W)
Time: 04:40:40
(UTC+02:00)

Vanguard 3 - Pass Details

Date: 26 June 2024
Orbit: 508 x 3231 km, 33.4° (Epoch: 15 July)

Event Time Altitude Azimuth Distance (km) Brightness Sun altitude
Rises 13:00:05 0° 269° (W) 5,276 11.1 66.7°
Reaches altitude 10° 13:04:19 10° 267° (W) 3,815 10.5 67.4°
Maximum altitude 13:13:11 61° 190° (S) 1,141 9.3 68.8°
Drops below altitude 10° 13:18:17 10° 110° (ESE) 2,248 9.9 69.6°
Sets 13:20:13 0° 106° (ESE) 2,986 10.3 69.9°
